When you browse on this site, cookies collect data to enhance your experience and personalize the content and advertising you see.
Visit our Privacy Policy to learn more. By continuing to use the site, you agree to this use of cookies and data.
  • In Hungary
  • List of Countries
  • For 7 days
  • Water Temperature
  • Weather Map
  • News
  • Weather Widgets
  • user-avatar
    Login

    Hourly Weather Mokronosy

    Today, 18 August, Sunday

    Time Temperature Precipitation Wind Pressure Humidity
    00:00 +19°C° 0 mm 3 mps 749 mmHg 62%
    01:00 +19°C° 0 mm 3 mps 749 mmHg 66%
    02:00 +19°C° 0 mm 3 mps 748 mmHg 66%
    03:00 +19°C° 0 mm 3 mps 748 mmHg 67%
    04:00 +19°C° 0 mm 3 mps 748 mmHg 68%
    05:00 +19°C° 0 mm 3 mps 748 mmHg 67%
    06:00 +20°C° 0 mm 3 mps 748 mmHg 67%
    07:00 +21°C° 0 mm 3 mps 748 mmHg 67%
    08:00 +21°C° 0 mm 3 mps 748 mmHg 67%
    09:00 +22°C° 0 mm 3 mps 748 mmHg 67%
    10:00 +22°C° 0 mm 4 mps 748 mmHg 67%
    11:00 +22°C° 0 mm 4 mps 748 mmHg 69%
    12:00 +21°C° 0 mm 4 mps 748 mmHg 72%
    13:00 +21°C° 0 mm 4 mps 748 mmHg 74%
    14:00 +22°C° 0 mm 4 mps 747 mmHg 70%
    15:00 +23°C° 0 mm 4 mps 747 mmHg 67%
    16:00 +25°C° 0 mm 4 mps 747 mmHg 63%
    17:00 +23°C° 0.1 mm 4 mps 747 mmHg 67%
    18:00 +24°C° 0.1 mm 3 mps 747 mmHg 70%
    19:00 +24°C° 0.1 mm 3 mps 746 mmHg 73%
    20:00 +22°C° 0.3 mm 3 mps 747 mmHg 77%
    21:00 +21°C° 0.3 mm 3 mps 747 mmHg 82%
    22:00 +21°C° 0.3 mm 3 mps 747 mmHg 86%
    23:00 +20°C° 0 mm 3 mps 747 mmHg 87%

    Tomorrow, 19 August, Monday

    Time Temperature Precipitation Wind Pressure Humidity
    00:00 +20°C° 0 mm 3 mps 748 mmHg 89%
    01:00 +19°C° 0 mm 3 mps 748 mmHg 91%
    02:00 +19°C° 0 mm 3 mps 749 mmHg 92%
    03:00 +18°C° 0 mm 2 mps 749 mmHg 93%
    04:00 +18°C° 0 mm 2 mps 749 mmHg 94%
    05:00 +18°C° 0 mm 2 mps 750 mmHg 91%
    06:00 +19°C° 0 mm 2 mps 750 mmHg 88%
    07:00 +19°C° 0 mm 2 mps 751 mmHg 85%
    08:00 +20°C° 0.3 mm 2 mps 751 mmHg 83%
    09:00 +20°C° 0.3 mm 2 mps 751 mmHg 82%
    10:00 +21°C° 0.3 mm 2 mps 751 mmHg 80%
    11:00 +21°C° 1.3 mm 2 mps 752 mmHg 78%
    12:00 +22°C° 1.3 mm 3 mps 752 mmHg 76%
    13:00 +22°C° 1.3 mm 3 mps 752 mmHg 74%
    14:00 +24°C° 0.3 mm 3 mps 752 mmHg 69%
    15:00 +24°C° 0.3 mm 3 mps 753 mmHg 63%
    16:00 +25°C° 0.3 mm 3 mps 753 mmHg 58%
    17:00 +24°C° 0 mm 3 mps 753 mmHg 61%
    18:00 +23°C° 0 mm 2 mps 753 mmHg 64%
    19:00 +20°C° 0 mm 2 mps 753 mmHg 67%
    20:00 +20°C° 0 mm 2 mps 754 mmHg 68%
    21:00 +19°C° 0 mm 2 mps 754 mmHg 69%
    22:00 +18°C° 0 mm 2 mps 755 mmHg 70%
    23:00 +17°C° 0 mm 2 mps 755 mmHg 70%

    Day after tomorrow, 20 August, Tuesday

    Time Temperature Precipitation Wind Pressure Humidity
    00:00 +16°C° 0 mm 1 mps 755 mmHg 70%
    01:00 +16°C° 0 mm 1 mps 755 mmHg 69%
    02:00 +16°C° 0 mm 1 mps 756 mmHg 71%
    03:00 +15°C° 0 mm 1 mps 756 mmHg 73%
    04:00 +14°C° 0 mm 0 mps 756 mmHg 75%
    05:00 +15°C° 0 mm 0 mps 756 mmHg 71%
    06:00 +18°C° 0 mm 1 mps 757 mmHg 68%
    07:00 +19°C° 0 mm 1 mps 757 mmHg 64%
    08:00 +21°C° 0 mm 1 mps 757 mmHg 59%
    09:00 +22°C° 0 mm 1 mps 757 mmHg 54%
    10:00 +23°C° 0 mm 1 mps 757 mmHg 49%
    11:00 +24°C° 0 mm 1 mps 757 mmHg 47%
    12:00 +24°C° 0 mm 1 mps 757 mmHg 45%
    13:00 +25°C° 0 mm 1 mps 757 mmHg 43%
    14:00 +25°C° 0 mm 1 mps 757 mmHg 44%
    15:00 +25°C° 0 mm 1 mps 757 mmHg 45%
    16:00 +25°C° 0 mm 1 mps 757 mmHg 46%
    17:00 +24°C° 0.3 mm 1 mps 757 mmHg 53%
    18:00 +22°C° 0.3 mm 1 mps 757 mmHg 61%
    19:00 +21°C° 0.3 mm 1 mps 757 mmHg 69%
    20:00 +19°C° 0.7 mm 2 mps 757 mmHg 76%
    21:00 +18°C° 0.7 mm 2 mps 758 mmHg 83%
    22:00 +18°C° 0.7 mm 2 mps 758 mmHg 90%
    23:00 +17°C° 1.2 mm 2 mps 758 mmHg 91%

    21 August, Wednesday

    Time Temperature Precipitation Wind Pressure Humidity
    00:00 +18°C° 1.2 mm 1 mps 758 mmHg 93%
    01:00 +18°C° 1.2 mm 1 mps 758 mmHg 94%
    02:00 +18°C° 1.4 mm 1 mps 758 mmHg 95%
    03:00 +17°C° 1.4 mm 2 mps 758 mmHg 95%
    04:00 +16°C° 1.4 mm 2 mps 758 mmHg 96%
    05:00 +16°C° 2.3 mm 2 mps 758 mmHg 95%
    06:00 +16°C° 2.3 mm 2 mps 759 mmHg 94%
    07:00 +16°C° 2.3 mm 2 mps 759 mmHg 94%
    08:00 +18°C° 0.8 mm 1 mps 759 mmHg 91%
    09:00 +18°C° 0.8 mm 1 mps 759 mmHg 88%
    10:00 +18°C° 0.8 mm 1 mps 760 mmHg 86%
    11:00 +19°C° 0.5 mm 1 mps 760 mmHg 79%
    12:00 +20°C° 0.5 mm 1 mps 760 mmHg 73%
    13:00 +21°C° 0.5 mm 1 mps 760 mmHg 67%
    14:00 +21°C° 0.1 mm 2 mps 760 mmHg 62%
    15:00 +23°C° 0.1 mm 2 mps 760 mmHg 57%
    16:00 +23°C° 0.1 mm 2 mps 760 mmHg 52%
    17:00 +21°C° 0 mm 2 mps 760 mmHg 57%
    18:00 +20°C° 0 mm 2 mps 760 mmHg 61%
    19:00 +19°C° 0 mm 2 mps 760 mmHg 66%
    20:00 +18°C° 0 mm 2 mps 760 mmHg 70%
    21:00 +17°C° 0 mm 2 mps 761 mmHg 74%
    22:00 +16°C° 0 mm 3 mps 761 mmHg 78%
    23:00 +15°C° 0 mm 2 mps 761 mmHg 80%

    22 August, Thursday

    Time Temperature Precipitation Wind Pressure Humidity
    00:00 +15°C° 0 mm 2 mps 761 mmHg 82%
    01:00 +14°C° 0 mm 2 mps 761 mmHg 84%
    02:00 +14°C° 0 mm 2 mps 761 mmHg 85%
    03:00 +14°C° 0 mm 2 mps 761 mmHg 87%
    04:00 +13°C° 0 mm 2 mps 761 mmHg 88%
    05:00 +14°C° 0 mm 2 mps 761 mmHg 85%
    06:00 +15°C° 0 mm 2 mps 761 mmHg 81%
    07:00 +16°C° 0 mm 2 mps 762 mmHg 78%
    08:00 +18°C° 0 mm 1 mps 762 mmHg 71%
    09:00 +20°C° 0 mm 1 mps 762 mmHg 63%
    10:00 +21°C° 0 mm 1 mps 762 mmHg 56%
    11:00 +22°C° 0 mm 1 mps 761 mmHg 52%
    12:00 +23°C° 0 mm 1 mps 761 mmHg 47%
    13:00 +24°C° 0 mm 1 mps 761 mmHg 43%
    14:00 +24°C° 0 mm 1 mps 760 mmHg 42%
    15:00 +24°C° 0 mm 1 mps 760 mmHg 41%
    16:00 +24°C° 0 mm 1 mps 760 mmHg 41%
    17:00 +23°C° 0 mm 1 mps 760 mmHg 45%
    18:00 +21°C° 0 mm 1 mps 760 mmHg 50%
    19:00 +20°C° 0 mm 1 mps 760 mmHg 55%
    20:00 +19°C° 0 mm 1 mps 760 mmHg 57%
    21:00 +18°C° 0 mm 1 mps 760 mmHg 59%
    22:00 +18°C° 0 mm 1 mps 761 mmHg 61%
    23:00 +16°C° 0 mm 1 mps 761 mmHg 63%

    23 August, Friday

    Time Temperature Precipitation Wind Pressure Humidity
    00:00 +16°C° 0 mm 1 mps 761 mmHg 65%
    01:00 +15°C° 0 mm 1 mps 761 mmHg 68%
    02:00 +15°C° 0 mm 1 mps 760 mmHg 69%
    03:00 +15°C° 0 mm 1 mps 760 mmHg 71%
    04:00 +14°C° 0 mm 1 mps 760 mmHg 73%
    05:00 +15°C° 0 mm 1 mps 760 mmHg 70%
    06:00 +16°C° 0 mm 1 mps 761 mmHg 68%
    07:00 +19°C° 0 mm 1 mps 761 mmHg 65%
    08:00 +20°C° 0 mm 1 mps 761 mmHg 60%
    09:00 +22°C° 0 mm 1 mps 761 mmHg 55%
    10:00 +24°C° 0 mm 1 mps 761 mmHg 49%
    11:00 +24°C° 0 mm 1 mps 761 mmHg 46%
    12:00 +25°C° 0 mm 1 mps 761 mmHg 43%
    13:00 +26°C° 0 mm 1 mps 761 mmHg 40%
    14:00 +26°C° 0 mm 1 mps 761 mmHg 40%
    15:00 +26°C° 0 mm 1 mps 760 mmHg 40%
    16:00 +25°C° 0 mm 1 mps 760 mmHg 40%
    17:00 +24°C° 0 mm 1 mps 760 mmHg 44%
    18:00 +23°C° 0 mm 1 mps 760 mmHg 49%
    19:00 +21°C° 0 mm 1 mps 760 mmHg 53%
    20:00 +20°C° 0 mm 1 mps 760 mmHg 55%
    21:00 +20°C° 0 mm 1 mps 761 mmHg 56%
    22:00 +19°C° 0 mm 1 mps 761 mmHg 57%
    23:00 +19°C° 0 mm 1 mps 761 mmHg 60%
    Show more